Preview of NWS' New Version of Forecast
This preview is not operational and should not be used for support decisions.

Regional Weather Roundup (RWR)

Issued by National Weather Service (NWS)

                            
000
ASUS42 KFFC 171910
RWRGA 
WEATHER ROUNDUP FOR GEORGIA
NATIONAL WEATHER SERVICE PEACHTREE CITY GA
200 PM EST MON DEC 17 2018

NOTE: "FAIR" INDICATES FEW OR NO CLOUDS BELOW 12,000 FEET WITH NO
SIGNIFICANT WEATHER AND/OR OBSTRUCTIONS TO VISIBILITY. 

* = USE WITH CAUTION. THE STATIONS MARKED WITH AN ASTERISK MAY NOT
REPORT WEATHER SUCH AS PRECIPITATION, FOG, OR THUNDER AND ARE NOT 
QUALITY CONTROLLED BY NWS.

THE REMARK "TC" DENOTES TEMPERATURE READING IN DEGREES CELSIUS.

GAZ001>058-172000-
NORTH GEORGIA
  
CITY           SKY/WX    TMP DP  RH WIND       PRES   REMARKS
ATLANTA        FAIR      61  31  32 NW15G22   30.10F                  
ATHENS         FAIR      65  30  27 W7        30.05F                  
CHAMBLEE       FAIR      60  32  34 NW14G23   30.10F                  
PEACHTREE CITY FAIR      63  33  32 NW9       30.12F                  
ROME           FAIR      61  36  39 NW7       30.14F                  
WEST ATLANTA   FAIR      61  32  33 W14       30.11F                  
GAINESVILLE    FAIR      60  35  39 W12       30.08F                  
CARTERSVILLE   FAIR      59  34  39 VRB3      30.15F                  

  
CITY           SKY/WX    TMP DP  RH WIND       PRES   REMARKS
DALTON*        FAIR      59  37  44 NW6       30.16F                  
LAWRENCEVILLE* FAIR      61  30  31 W12G17    30.08F                  
MARIETTA       SUNNY     60  30  32 NW16      30.11F                  
KENNESAW*      FAIR      58  33  39 NW9G17    30.13F                  
CANTON*        FAIR      59  27  29 NW10G20   30.13F                  
BLAIRSVILLE*   FAIR      55  31  40 N5        30.11F                  
$$

GAZ059>098-102>109-172000-
CENTRAL GEORGIA
  
CITY           SKY/WX    TMP DP  RH WIND       PRES   REMARKS
AUGUSTA-BUSH   FAIR      67  42  40 SW7       30.02F                  
AUGUSTA-DANIEL FAIR      66  37  34 VRB5      30.03F                  
COLUMBUS       FAIR      65  36  34 NW8       30.13F                  
MACON          FAIR      69  35  28 NW8       30.08F                  
ROBINS AFB     MOSUNNY   69  35  29 NW8       30.08F                  

  
CITY           SKY/WX    TMP DP  RH WIND       PRES   REMARKS
LAGRANGE*      FAIR      64  38  37 W7        30.13F                  
SYLVANIA*      FAIR      64  49  58 W3        30.07F                  
MILLEDGEVILLE* FAIR      64  37  36 W12       30.07F                  
$$

GAZ099>101-110>166-172000-
SOUTH GEORGIA
  
CITY           SKY/WX    TMP DP  RH WIND       PRES   REMARKS
SAVANNAH       FAIR      59  47  64 W5        30.08F                  
VALDOSTA       FAIR      63  49  60 VRB3      30.12F                  
ALMA           FAIR      58  47  66 W7        30.10F                  
ST SIMONS      FAIR      58  48  69 W8        30.09F                  
ALBANY         FAIR      64  43  46 W7        30.14F                  
HUNTER AFB     FAIR      57  53  85 W3        30.05F                  
MOODY AFB      FAIR      62  50  65 NW5       30.10F                  
BRUNSWICK      FAIR      54  48  82 W5        30.10F                  

  
CITY           SKY/WX    TMP DP  RH WIND       PRES   REMARKS
BAINBRIDGE*      N/A     64  43  45 NW7       30.15F                  
MOULTRIE*      FAIR      61  45  55 NW3       30.13F                  
VIDALIA*       FAIR      63  45  51 W7        30.09F                  
WAYCROSS*      FAIR      58  52  80 W6        30.10F                  
DOUGLAS*       FAIR      60  48  64 SW6       30.12F                  
$$